Temperature
18 18 18 17 17 17 17 17 17 17 17 17 17 17 17 17 16 16 16 16 16 16 16 16 16 15 15 15 15 15 15 15 15 15 14 14 14 14 14 13 13 13 14
18 18 18 17 17 17 17 17 17 17 17 17 16 16 16 16 16 16 16 15 15 15 15 15 15 15 15 15 15 15 15 15 15 14 14 14 13 13 13 13 13 13 13
18 18 18 18 17 17 17 17 17 16 16 16 16 16 16 16 16 16 15 15 15 15 15 15 15 15 15 15 15 14 14 14 14 14 13 13 13 13 13 13 13 12 12
18 18 17 17 17 17 17 16 16 16 16 16 16 16 15 15 15 15 15 15 15 15 14 14 14 14 14 14 14 14 14 14 13 13 13 13 13 12 12 12 12 12 12
18 17 17 17 17 17 16 16 16 16 16 16 15 15 15 15 15 15 15 14 14 14 14 14 14 14 14 14 14 14 13 13 13 13 13 13 12 12 12 12 12 11 11
18 18 17 17 17 17 16 16 16 16 16 15 15 15 15 15 15 15 15 14 14 14 14 14 14 14 14 14 14 13 13 13 13 13 13 12 12 12 12 11 11 11 11
18 17 17 17 17 16 16 16 16 16 15 15 15 15 15 15 15 15 14 14 14 14 14 13 13 13 13 13 13 13 13 13 13 12 12 12 12 12 11 11 11 11 11
17 17 17 17 16 16 16 16 15 15 15 15 15 14 14 14 14 14 14 14 13 13 13 13 13 13 13 13 12 12 12 12 12 12 12 12 11 11 11 11 11 11 10
17 17 17 17 16 16 16 15 15 15 15 15 14 14 14 14 14 14 14 13 13 13 13 13 12 13 12 12 12 12 12 12 12 12 11 11 11 11 11 11 10 11 10
17 17 17 16 16 15 15 15 15 15 15 14 14 14 13 13 13 13 13 13 13 13 12 12 12 12 12 12 11 11 11 11 11 11 11 11 11 11 11 10 10 10 10
17 16 16 16 16 15 15 15 15 15 14 14 13 13 13 13 13 13 13 13 12 12 12 12 12 12 12 12 11 11 11 11 11 11 11 10 10 10 10 10 10 10 10
16 16 16 16 15 15 15 15 14 14 14 13 13 13 13 13 13 12 12 12 12 12 11 11 11 11 11 11 11 11 11 11 11 11 11 10 10 10 10 10 9 9 9
16 16 16 15 15 15 14 14 14 14 13 13 13 13 12 12 12 12 12 12 11 11 11 11 11 11 10 10 10 10 10 10 10 10 10 10 10 10 9 9 9 9 9
16 15 15 15 15 14 14 14 14 13 13 13 13 12 12 12 12 11 11 11 11 11 11 11 10 10 10 10 10 10 10 10 10 10 10 10 9 9 9 9 9 9 9
15 15 15 14 14 14 14 14 13 13 13 12 12 12 12 11 11 11 11 11 10 10 10 10 10 10 10 10 10 10 10 10 10 9 9 9 9 9 9 9 9 9 9
15 14 14 14 14 13 13 13 13 13 12 12 12 11 11 11 11 11 11 11 10 10 10 10 10 10 10 10 10 9 9 9 9 9 9 9 9 9 9 9 8 8 9
15 14 14 14 14 13 13 13 12 12 12 11 11 11 11 11 11 10 10 10 10 10 10 9 9 9 9 9 9 9 9 9 8 9 9 9 9 9 8 8 8 8 8
14 14 14 14 13 13 13 12 12 12 11 11 11 11 10 10 10 10 10 10 10 10 9 9 9 9 9 9 9 9 9 8 8 8 8 8 8 8 8 8 8 8 8
14 13 13 13 13 13 12 12 12 11 11 11 11 10 10 10 10 10 10 10 10 9 9 9 9 9 8 8 8 8 8 8 8 8 8 8 8 8 8 8 8 7 7
13 13 13 13 13 12 12 12 12 11 11 11 10 10 10 10 10 10 9 9 9 9 9 9 8 8 8 8 8 7 7 7 7 7 7 7 7 7 7 7 7 7 7
13 13 13 12 12 12 12 12 11 11 11 10 10 10 10 9 9 9 9 9 9 9 8 8 8 8 7 7 7 7 7 7 7 7 7 7 7 7 7 7 7 7 7
13 13 12 12 12 11 11 11 11 11 11 10 10 10 9 9 9 9 9 9 8 8 8 8 8 7 7 7 7 7 7 7 7 6 6 6 6 6 6 7 7 7 7
12 12 12 12 11 11 11 11 11 11 10 10 10 10 9 9 9 9 8 8 8 8 8 7 7 7 7 7 6 6 6 6 6 6 6 6 6 6 6 6 6 6 6
12 12 12 11 11 11 11 11 11 11 10 10 10 10 9 9 9 8 8 8 8 8 7 7 7 7 6 6 6 6 6 6 6 6 5 5 5 6 6 6 6 6 6
12 12 11 11 11 11 11 11 11 10 10 10 10 9 9 9 9 8 8 8 8 7 7 7 6 6 6 6 6 6 6 6 6 6 5 5 5 5 5 5 5 5 6
12 11 11 11 11 11 11 10 10 10 10 10 10 9 9 9 8 8 8 8 7 7 7 7 6 6 6 6 6 6 6 6 6 5 5 5 5 5 5 5 5 5 5
Wind_Speed
3 3 2 2 2 2 1 0 1 1 1 1 1 1 1 1 1 1 2 2 3 3 3 4 4 4 3 3 3 3 3 3 4 2 1 2 2 2 2 2 2 2 4
4 3 3 2 2 2 1 1 0 0 0 1 1 1 1 1 1 1 2 2 2 3 3 3 3 3 3 3 2 3 2 2 3 3 2 2 2 2 2 2 2 2 3
5 4 3 3 3 2 1 1 1 1 0 1 1 1 1 1 1 1 2 2 2 2 3 3 3 2 2 2 2 2 2 3 3 4 3 2 2 2 2 2 2 2 3
5 4 3 3 3 2 2 2 1 1 1 1 1 1 1 2 2 2 2 2 2 3 3 3 2 2 2 2 2 2 2 2 3 3 3 3 2 3 3 3 2 2 1
4 4 3 3 2 2 2 2 2 2 2 2 1 1 1 1 2 3 2 2 2 2 3 3 3 3 4 2 1 1 2 2 3 3 3 3 3 3 3 3 2 2 2
4 4 3 3 3 2 3 3 3 2 2 2 2 2 2 2 4 4 3 1 1 2 2 2 2 3 3 3 3 3 2 1 2 2 2 2 2 2 2 2 2 2 1
4 3 3 3 3 3 3 3 3 2 2 2 2 2 2 4 5 4 4 1 1 2 2 2 1 2 2 1 2 3 3 3 2 2 0 1 1 1 2 3 3 2 1
4 3 3 3 3 3 3 3 2 2 2 2 2 2 2 4 5 4 3 1 2 2 2 2 2 2 3 2 2 3 3 2 1 1 1 1 1 0 2 2 2 2 2
4 3 3 3 3 3 3 3 3 2 2 2 2 2 2 3 5 4 4 1 2 2 3 3 3 3 5 4 1 2 2 2 4 4 3 3 3 1 1 1 2 2 2
4 4 3 3 3 3 2 3 3 3 3 3 3 2 3 3 4 4 4 1 2 2 2 3 6 4 5 4 1 1 1 1 1 2 2 2 2 2 2 1 1 2 1
5 5 4 4 4 3 3 2 3 3 3 3 3 3 3 3 4 3 4 1 1 1 1 2 3 4 4 4 2 1 1 1 1 1 2 2 1 1 2 1 1 2 2
5 5 4 4 3 3 3 3 3 3 4 4 3 2 2 3 3 3 2 3 3 2 1 2 3 3 3 3 2 3 3 3 1 1 1 1 1 0 0 0 0 1 2
5 5 5 5 4 3 3 4 4 3 2 2 2 2 2 2 3 4 3 2 2 1 2 4 3 1 3 2 2 2 2 1 0 0 0 0 0 1 0 1 2 2 2
6 5 5 5 4 4 3 3 3 2 2 2 2 1 1 2 2 1 1 2 3 2 2 3 4 2 2 1 2 1 0 1 1 1 1 1 1 0 1 1 2 2 2
5 5 5 5 5 4 4 3 2 2 1 0 1 1 1 1 2 3 2 1 0 1 1 1 1 1 1 1 1 1 0 0 1 1 1 1 1 1 1 1 2 2 3
5 5 4 4 4 4 5 5 7 6 6 6 5 3 4 5 4 3 3 3 3 2 1 1 1 0 0 1 0 0 0 1 1 2 1 2 2 2 2 2 2 3 3
5 5 4 4 4 4 5 5 5 4 5 5 4 4 4 4 4 3 2 1 1 2 1 0 0 1 1 1 1 1 1 1 2 2 2 2 2 3 2 3 3 4 4
4 4 4 4 4 4 4 4 4 5 5 4 4 5 4 4 3 2 2 2 2 1 1 1 1 1 1 2 2 2 2 2 2 3 3 3 3 3 4 4 3 3 4
4 4 3 4 4 4 4 4 4 4 4 4 4 4 4 4 5 3 3 1 1 0 0 1 1 1 1 1 2 2 3 3 3 3 3 3 4 4 4 4 4 3 5
4 4 3 4 4 4 4 4 4 4 4 4 4 3 3 3 2 2 1 0 0 0 1 1 1 1 2 2 2 2 3 3 3 3 3 4 4 4 4 5 4 4 4
4 5 5 4 4 4 4 4 4 4 4 4 3 3 2 2 2 1 1 1 0 0 0 1 1 1 1 1 2 2 3 3 3 3 4 4 4 4 4 4 4 5 5
4 4 4 4 4 4 3 4 4 3 4 3 3 4 4 3 1 1 0 0 0 0 0 1 1 1 1 1 2 2 3 3 3 3 3 4 3 4 4 4 4 5 5
4 4 4 4 4 5 4 3 3 3 3 3 3 3 3 2 1 1 1 0 0 0 0 1 1 1 1 1 1 2 2 3 3 4 4 4 3 4 4 4 5 6 5
4 5 5 5 4 4 4 4 3 3 3 3 2 2 2 2 2 1 1 1 1 1 1 1 0 0 1 1 1 1 2 4 5 4 4 4 4 4 5 5 5 5 5
4 4 4 4 4 4 3 3 3 3 3 2 2 2 2 2 2 2 2 1 1 1 1 2 1 1 1 1 1 2 3 4 5 6 5 5 5 5 5 5 5 5 5
4 5 4 4 4 3 3 3 3 3 3 3 3 2 2 2 2 2 2 2 3 2 2 2 2 1 1 2 1 1 2 3 5 7 8 6 5 4 5 5 6 6 5
Wind_Direction
176 178 186 182 182 183 201 274 332 323 325 316 296 294 307 312 301 277 273 266 269 276 277 273 274 278 266 251 237 232 232 236 243 250 195 161 172 200 139 139 139 132 115
162 164 171 176 175 177 164 155 132 20 333 28 350 330 335 8 352 328 304 303 295 296 297 299 293 279 266 254 236 225 232 230 220 221 209 186 185 176 158 177 133 116 106
159 165 169 175 169 172 172 155 129 129 86 82 74 34 24 34 29 7 347 334 328 325 321 316 311 301 283 266 243 233 226 215 211 207 200 178 179 165 168 154 140 136 131
168 169 170 176 176 175 168 154 139 135 118 99 91 66 37 35 29 13 357 353 348 350 351 347 342 332 317 295 259 241 234 228 212 203 193 172 165 170 179 178 169 163 152
168 168 170 168 163 168 163 148 139 138 128 107 83 68 44 36 30 10 349 5 358 358 9 11 21 30 24 12 339 291 232 228 213 196 195 188 180 178 195 200 177 154 139
171 174 172 161 154 157 154 141 134 132 117 102 81 68 57 43 37 13 343 12 8 7 17 20 45 63 77 79 55 39 14 240 214 204 197 197 188 192 203 200 178 181 181
164 168 161 155 154 157 156 148 145 143 129 121 112 90 65 47 41 27 357 358 20 27 23 10 19 51 65 85 118 128 77 37 6 302 257 252 212 210 208 199 196 210 210
161 164 161 164 163 160 158 156 153 149 142 135 121 101 80 51 44 31 344 80 59 51 43 31 36 35 31 20 87 96 92 76 44 20 20 333 337 264 219 213 181 165 162
163 167 168 166 166 166 167 167 161 156 149 137 115 101 85 64 43 19 333 102 87 68 56 45 32 43 13 349 48 97 106 111 96 82 57 54 50 45 305 206 178 186 196
166 161 159 157 165 172 175 172 161 158 150 136 115 108 97 78 55 25 331 105 88 79 74 70 50 29 19 356 57 90 89 78 96 117 122 138 135 139 177 246 246 240 245
159 153 152 151 156 158 160 157 151 150 140 128 121 110 94 76 82 49 355 2 47 66 73 65 55 48 38 16 351 44 1 303 171 148 135 132 141 146 167 190 299 305 301
153 151 148 147 148 146 155 153 151 155 149 139 132 123 104 90 69 74 46 20 356 60 49 59 69 74 62 34 32 16 322 281 222 166 134 122 119 118 116 156 353 338 346
151 145 142 140 137 138 146 149 152 158 158 154 152 140 115 102 102 111 123 88 10 58 69 68 76 150 180 123 87 307 275 256 273 92 60 42 41 39 172 177 184 215 238
155 149 147 146 144 137 142 143 146 149 158 162 152 140 124 106 78 85 139 146 156 140 121 144 174 196 196 113 157 200 275 342 311 316 339 345 345 245 232 249 246 232 245
156 158 155 151 144 137 122 92 114 97 70 104 136 146 133 117 56 22 2 56 58 108 167 138 120 107 116 111 112 100 12 23 325 309 305 298 284 274 289 303 298 281 272
162 164 163 158 153 152 142 121 64 65 78 66 46 43 80 84 100 90 60 43 26 316 252 121 108 84 0 5 332 114 75 357 323 312 316 310 297 292 288 281 284 284 283
167 165 167 161 161 162 157 152 136 105 88 84 80 74 83 108 118 123 120 114 222 247 205 105 39 351 342 338 338 337 336 343 314 303 300 297 294 288 286 282 282 286 287
169 160 168 161 161 159 159 159 155 152 145 130 113 113 122 132 145 161 194 209 146 160 43 22 358 343 337 329 328 326 318 309 296 295 297 295 292 285 281 279 278 289 289
167 157 162 158 160 155 157 159 158 156 149 140 134 128 138 152 162 180 221 221 99 111 52 6 329 319 324 320 319 316 310 303 301 289 290 290 286 282 282 283 280 262 269
160 131 164 170 163 157 157 159 158 157 155 156 158 148 152 169 152 147 173 204 323 358 337 303 311 322 325 317 305 299 289 291 295 290 298 291 287 286 285 281 283 282 279
160 153 172 188 174 166 164 164 163 166 168 165 158 133 168 192 169 168 176 200 249 262 292 300 293 305 309 297 297 291 288 296 303 307 304 297 291 287 286 284 282 279 282
160 163 172 173 167 166 165 166 164 165 166 167 151 146 179 217 185 167 174 184 231 270 318 296 299 315 319 311 304 297 297 310 321 317 308 303 298 293 290 288 288 286 283
163 162 163 161 158 153 168 164 159 161 163 165 162 162 174 190 190 196 221 240 202 221 274 283 297 317 334 307 306 307 317 328 316 308 297 294 296 294 291 293 290 288 288
160 163 163 160 161 170 169 167 174 174 171 171 169 172 180 192 213 217 230 209 206 218 235 248 263 343 321 299 302 338 0 337 316 305 303 299 300 303 298 295 290 293 292
170 171 173 172 174 179 178 177 178 174 167 178 187 190 195 207 215 218 214 206 216 227 234 226 222 209 218 275 325 7 15 348 323 312 293 288 292 297 302 298 297 296 297
180 181 183 184 183 183 186 188 191 188 191 198 204 212 218 222 225 213 204 216 227 221 229 228 227 228 246 256 311 3 350 322 310 305 295 287 290 297 304 293 295 293 296
Height
1540 1540 1540 1540 1540 1540 1540 1539 1539 1538 1538 1537 1537 1537 1537 1537 1536 1536 1536 1536 1535 1535 1534 1533 1532 1531 1531 1531 1531 1532 1532 1533 1533 1534 1534 1534 1534 1535 1535 1535 1535 1534 1534
1539 1539 1539 1539 1539 1539 1538 1538 1537 1537 1537 1536 1536 1536 1536 1535 1535 1535 1534 1534 1533 1533 1532 1531 1530 1529 1528 1528 1529 1529 1529 1530 1530 1531 1531 1532 1532 1532 1532 1532 1533 1533 1532
1537 1537 1537 1538 1537 1537 1537 1537 1536 1536 1536 1535 1534 1534 1534 1534 1534 1534 1533 1533 1532 1531 1530 1528 1527 1527 1526 1526 1526 1526 1527 1527 1528 1528 1529 1529 1530 1530 1530 1530 1530 1530 1530
1536 1536 1536 1536 1536 1536 1536 1535 1535 1535 1535 1534 1534 1534 1534 1533 1533 1532 1532 1531 1530 1529 1528 1527 1526 1525 1524 1524 1524 1524 1524 1525 1525 1526 1526 1527 1527 1527 1528 1528 1528 1528 1529
1534 1535 1535 1534 1534 1534 1534 1534 1534 1534 1534 1534 1534 1534 1533 1533 1532 1531 1531 1530 1529 1528 1527 1526 1526 1524 1523 1523 1523 1522 1522 1522 1523 1523 1524 1524 1525 1525 1526 1526 1526 1527 1526
1533 1533 1533 1533 1533 1533 1533 1533 1533 1533 1533 1533 1533 1532 1532 1532 1531 1530 1530 1529 1528 1527 1526 1525 1525 1524 1523 1522 1521 1521 1521 1521 1522 1522 1522 1522 1522 1523 1523 1524 1524 1525 1525
1532 1532 1532 1532 1532 1532 1532 1532 1532 1532 1532 1532 1532 1531 1531 1530 1530 1529 1528 1528 1527 1526 1525 1524 1524 1523 1522 1521 1521 1520 1520 1520 1520 1521 1521 1521 1521 1521 1521 1522 1522 1522 1522
1530 1530 1530 1530 1531 1531 1531 1531 1531 1531 1531 1531 1531 1530 1529 1529 1528 1528 1527 1527 1526 1525 1524 1524 1523 1522 1522 1521 1521 1520 1519 1519 1520 1520 1520 1520 1520 1519 1520 1520 1520 1520 1520
1527 1528 1529 1529 1529 1529 1529 1529 1530 1530 1530 1530 1529 1529 1529 1528 1527 1526 1526 1526 1525 1524 1524 1523 1522 1522 1521 1521 1520 1519 1519 1519 1519 1519 1519 1518 1518 1518 1518 1519 1519 1519 1519
1525 1525 1526 1526 1527 1527 1528 1528 1528 1528 1528 1529 1528 1528 1528 1527 1526 1526 1525 1526 1525 1524 1523 1522 1521 1521 1520 1520 1520 1519 1519 1519 1519 1518 1518 1518 1518 1517 1517 1517 1518 1518 1518
1523 1523 1523 1523 1524 1525 1525 1526 1526 1526 1527 1527 1527 1527 1526 1526 1526 1525 1525 1524 1524 1523 1523 1522 1521 1520 1520 1519 1519 1519 1518 1519 1519 1518 1518 1518 1517 1517 1517 1516 1516 1517 1517
1521 1521 1521 1521 1522 1523 1523 1524 1524 1525 1525 1526 1526 1526 1526 1525 1525 1524 1524 1523 1523 1522 1522 1522 1521 1520 1519 1519 1518 1518 1518 1518 1519 1518 1518 1517 1517 1517 1516 1516 1515 1515 1515
1518 1519 1519 1520 1520 1521 1522 1523 1523 1524 1525 1525 1526 1526 1525 1525 1524 1523 1523 1523 1522 1521 1521 1520 1520 1519 1519 1518 1518 1517 1517 1518 1518 1518 1517 1517 1517 1516 1515 1515 1514 1514 1513
1516 1517 1518 1519 1519 1520 1520 1522 1523 1523 1524 1524 1525 1525 1524 1524 1524 1523 1522 1522 1521 1521 1520 1520 1519 1519 1518 1518 1518 1517 1517 1517 1517 1517 1517 1516 1516 1515 1515 1514 1514 1513 1513
1514 1516 1517 1517 1517 1518 1519 1520 1521 1522 1522 1523 1523 1524 1523 1523 1522 1521 1521 1521 1521 1520 1520 1520 1520 1519 1519 1518 1517 1517 1517 1516 1516 1516 1515 1515 1514 1514 1513 1513 1512 1511 1511
1513 1514 1515 1516 1517 1517 1518 1519 1519 1520 1520 1521 1521 1521 1521 1521 1520 1520 1520 1520 1519 1519 1520 1520 1520 1519 1518 1518 1517 1517 1516 1515 1515 1514 1514 1513 1513 1512 1511 1511 1510 1510 1509
1511 1512 1514 1515 1516 1516 1517 1518 1518 1518 1519 1519 1520 1520 1520 1520 1520 1520 1519 1519 1519 1518 1519 1519 1519 1518 1518 1517 1516 1515 1515 1514 1513 1513 1512 1512 1511 1510 1509 1509 1508 1507 1507
1510 1511 1511 1512 1514 1515 1516 1516 1517 1517 1518 1518 1519 1519 1519 1519 1519 1519 1518 1518 1518 1518 1518 1518 1517 1517 1516 1515 1515 1514 1513 1512 1511 1511 1510 1509 1508 1508 1507 1506 1505 1505 1504
1508 1509 1510 1511 1512 1513 1514 1515 1516 1517 1517 1517 1518 1518 1518 1518 1518 1517 1517 1518 1518 1517 1517 1516 1516 1515 1514 1513 1512 1512 1511 1510 1509 1509 1508 1507 1506 1505 1505 1504 1503 1502 1501
1506 1507 1508 1510 1511 1511 1512 1513 1514 1515 1516 1516 1516 1517 1517 1517 1517 1517 1516 1516 1516 1516 1515 1515 1514 1513 1512 1511 1510 1510 1509 1508 1507 1507 1506 1505 1504 1503 1502 1501 1501 1500 1499
1504 1505 1506 1508 1510 1511 1511 1512 1513 1513 1514 1515 1515 1515 1515 1516 1516 1515 1515 1515 1515 1514 1514 1513 1512 1511 1510 1509 1508 1507 1507 1506 1505 1504 1503 1502 1501 1500 1500 1499 1498 1497 1496
1503 1504 1506 1507 1508 1509 1509 1510 1511 1512 1513 1513 1513 1513 1513 1514 1515 1514 1514 1514 1513 1513 1512 1511 1511 1509 1508 1507 1506 1505 1504 1503 1502 1501 1500 1499 1499 1498 1497 1496 1496 1495 1494
1502 1503 1505 1506 1506 1507 1508 1509 1510 1511 1511 1511 1512 1512 1512 1512 1513 1513 1513 1512 1511 1510 1510 1509 1508 1507 1506 1505 1503 1502 1501 1500 1499 1498 1497 1497 1496 1496 1495 1494 1493 1492 1491
1501 1503 1504 1504 1506 1506 1507 1508 1509 1509 1510 1510 1510 1511 1511 1511 1511 1511 1511 1510 1509 1508 1508 1507 1506 1505 1503 1502 1502 1500 1498 1497 1496 1496 1495 1494 1494 1493 1493 1492 1491 1490 1489
1500 1502 1503 1504 1505 1505 1506 1507 1508 1508 1508 1509 1509 1509 1509 1509 1509 1509 1509 1508 1507 1506 1506 1505 1504 1502 1501 1500 1499 1498 1496 1495 1494 1493 1492 1492 1491 1490 1490 1489 1488 1487 1486
1499 1500 1501 1502 1503 1503 1504 1505 1506 1506 1507 1507 1507 1507 1507 1507 1507 1507 1506 1505 1505 1504 1503 1503 1501 1500 1499 1498 1496 1495 1493 1492 1491 1490 1489 1489 1489 1488 1487 1486 1486 1485 1484